Location: *
(46.1866°S, 178.5290°W)
Time: 02:28:27
(UTC+00:00)

CZ-2C R/B - Pass Details

Date: 19 May 2021
Orbit: 705 x 907 km, 98.0° (Epoch: 12 June)

Event Time Altitude Azimuth Distance (km) Brightness Sun altitude
Exits shadow 06:35:00 46° 136° (SE) 970 3.2 -21.7°
Maximum altitude 06:36:15 63° 79° (E) 804 2.8 -21.9°
Drops below altitude 10° 06:41:00 10° 357° (N) 2,198 5.5 -22.8°
Sets 06:43:17 0° 354° (N) 3,124 6.3 -23.1°
